• în Republica Moldova
  • Lista ţărilor
  • Pe 7 zile
  • Temperatura apei
  • Hartă satelitară
  • Meteo pe hartă
  • Widget-uri
  • user-avatar
    Intrare

    Meteo pe oră la Uige

    Astăzi, 23 August, Miercuri

    Timp Temperatura Precipitaţii Vânt Presiune Umiditate
    00:00 +24°C° 0 mm 1 m/s 691 mmHg 64%
    01:00 +22°C° 0 mm 1 m/s 691 mmHg 72%
    02:00 +21°C° 0 mm 1 m/s 691 mmHg 75%
    03:00 +21°C° 0 mm 1 m/s 691 mmHg 79%
    04:00 +20°C° 0 mm 1 m/s 691 mmHg 82%
    05:00 +20°C° 0 mm 1 m/s 691 mmHg 81%
    06:00 +20°C° 0 mm 1 m/s 692 mmHg 80%
    07:00 +21°C° 0 mm 1 m/s 692 mmHg 75%
    08:00 +24°C° 0 mm 1 m/s 692 mmHg 66%
    09:00 +26°C° 0 mm 1 m/s 693 mmHg 57%
    10:00 +29°C° 0 mm 1 m/s 693 mmHg 48%
    11:00 +31°C° 0 mm 1 m/s 693 mmHg 41%
    12:00 +34°C° 0 mm 1 m/s 693 mmHg 34%
    13:00 +36°C° 0 mm 1 m/s 692 mmHg 27%
    14:00 +36°C° 0 mm 1 m/s 692 mmHg 28%
    15:00 +36°C° 0 mm 2 m/s 691 mmHg 28%
    16:00 +35°C° 0 mm 2 m/s 690 mmHg 29%
    17:00 +32°C° 0 mm 2 m/s 690 mmHg 35%
    18:00 +30°C° 0 mm 2 m/s 690 mmHg 41%
    19:00 +28°C° 0 mm 2 m/s 690 mmHg 47%
    20:00 +27°C° 0 mm 2 m/s 691 mmHg 53%
    21:00 +26°C° 0 mm 2 m/s 691 mmHg 58%
    22:00 +25°C° 0 mm 2 m/s 692 mmHg 64%
    23:00 +24°C° 0 mm 2 m/s 692 mmHg 69%

    Mâine, 24 August, Joi

    Timp Temperatura Precipitaţii Vânt Presiune Umiditate
    00:00 +23°C° 0 mm 2 m/s 691 mmHg 73%
    01:00 +21°C° 0 mm 2 m/s 691 mmHg 78%
    02:00 +20°C° 0 mm 2 m/s 691 mmHg 81%
    03:00 +20°C° 0 mm 2 m/s 691 mmHg 84%
    04:00 +19°C° 0 mm 2 m/s 690 mmHg 87%
    05:00 +20°C° 0 mm 2 m/s 691 mmHg 86%
    06:00 +20°C° 0 mm 2 m/s 691 mmHg 84%
    07:00 +20°C° 0 mm 2 m/s 692 mmHg 83%
    08:00 +23°C° 0 mm 2 m/s 692 mmHg 71%
    09:00 +26°C° 0 mm 2 m/s 693 mmHg 60%
    10:00 +29°C° 0 mm 2 m/s 693 mmHg 49%
    11:00 +30°C° 0 mm 2 m/s 693 mmHg 43%
    12:00 +32°C° 0 mm 2 m/s 692 mmHg 37%
    13:00 +35°C° 0 mm 2 m/s 692 mmHg 32%
    14:00 +35°C° 0 mm 2 m/s 691 mmHg 32%
    15:00 +34°C° 0 mm 3 m/s 691 mmHg 33%
    16:00 +33°C° 0 mm 3 m/s 690 mmHg 34%
    17:00 +31°C° 0 mm 3 m/s 690 mmHg 38%
    18:00 +30°C° 0 mm 3 m/s 691 mmHg 43%
    19:00 +28°C° 0 mm 3 m/s 691 mmHg 48%
    20:00 +27°C° 0 mm 3 m/s 691 mmHg 54%
    21:00 +25°C° 0 mm 2 m/s 691 mmHg 60%
    22:00 +24°C° 0 mm 2 m/s 692 mmHg 67%
    23:00 +23°C° 0 mm 2 m/s 692 mmHg 71%

    Poimâine, 25 August, Vineri

    Timp Temperatura Precipitaţii Vânt Presiune Umiditate
    00:00 +21°C° 0 mm 2 m/s 691 mmHg 74%
    01:00 +20°C° 0 mm 2 m/s 691 mmHg 78%
    02:00 +20°C° 0 mm 2 m/s 691 mmHg 81%
    03:00 +20°C° 0 mm 2 m/s 691 mmHg 83%
    04:00 +19°C° 0 mm 2 m/s 690 mmHg 85%
    05:00 +19°C° 0 mm 2 m/s 691 mmHg 83%
    06:00 +19°C° 0 mm 2 m/s 691 mmHg 82%
    07:00 +19°C° 0 mm 2 m/s 691 mmHg 80%
    08:00 +23°C° 0 mm 2 m/s 692 mmHg 69%
    09:00 +25°C° 0 mm 2 m/s 692 mmHg 58%
    10:00 +28°C° 0 mm 2 m/s 693 mmHg 47%
    11:00 +30°C° 0 mm 2 m/s 692 mmHg 41%
    12:00 +32°C° 0 mm 2 m/s 692 mmHg 34%
    13:00 +35°C° 0 mm 2 m/s 691 mmHg 28%
    14:00 +35°C° 0 mm 3 m/s 691 mmHg 28%
    15:00 +35°C° 0 mm 3 m/s 690 mmHg 27%
    16:00 +35°C° 0 mm 3 m/s 689 mmHg 27%
    17:00 +33°C° 0 mm 3 m/s 689 mmHg 32%
    18:00 +30°C° 0 mm 3 m/s 689 mmHg 37%
    19:00 +28°C° 0 mm 3 m/s 690 mmHg 42%
    20:00 +26°C° 0 mm 2 m/s 690 mmHg 48%
    21:00 +25°C° 0 mm 2 m/s 690 mmHg 53%
    22:00 +23°C° 0 mm 2 m/s 691 mmHg 59%
    23:00 +23°C° 0 mm 2 m/s 691 mmHg 63%

    26 August, Sâmbătă

    Timp Temperatura Precipitaţii Vânt Presiune Umiditate
    00:00 +21°C° 0 mm 2 m/s 690 mmHg 68%
    01:00 +20°C° 0 mm 2 m/s 690 mmHg 72%
    02:00 +19°C° 0 mm 2 m/s 690 mmHg 76%
    03:00 +18°C° 0 mm 2 m/s 690 mmHg 80%
    04:00 +18°C° 0 mm 2 m/s 689 mmHg 84%
    05:00 +18°C° 0 mm 2 m/s 690 mmHg 83%
    06:00 +18°C° 0 mm 2 m/s 690 mmHg 82%
    07:00 +18°C° 0 mm 2 m/s 691 mmHg 82%
    08:00 +20°C° 0 mm 2 m/s 692 mmHg 70%
    09:00 +23°C° 0 mm 2 m/s 692 mmHg 58%
    10:00 +26°C° 0 mm 2 m/s 693 mmHg 46%
    11:00 +28°C° 0 mm 2 m/s 692 mmHg 40%
    12:00 +30°C° 0 mm 3 m/s 691 mmHg 34%
    13:00 +33°C° 0 mm 3 m/s 691 mmHg 28%
    14:00 +33°C° 0 mm 3 m/s 690 mmHg 28%
    15:00 +33°C° 0 mm 3 m/s 690 mmHg 28%
    16:00 +33°C° 0 mm 3 m/s 689 mmHg 28%
    17:00 +30°C° 0 mm 3 m/s 689 mmHg 33%
    18:00 +28°C° 0 mm 3 m/s 690 mmHg 39%
    19:00 +26°C° 0 mm 3 m/s 690 mmHg 44%
    20:00 +25°C° 0 mm 3 m/s 690 mmHg 51%
    21:00 +23°C° 0 mm 2 m/s 691 mmHg 58%
    22:00 +21°C° 0 mm 2 m/s 691 mmHg 65%
    23:00 +20°C° 0 mm 2 m/s 691 mmHg 71%

    27 August, Duminică

    Timp Temperatura Precipitaţii Vânt Presiune Umiditate
    00:00 +19°C° 0 mm 2 m/s 690 mmHg 76%
    01:00 +18°C° 0 mm 2 m/s 690 mmHg 82%
    02:00 +18°C° 0 mm 2 m/s 690 mmHg 82%
    03:00 +18°C° 0 mm 2 m/s 690 mmHg 83%
    04:00 +17°C° 0 mm 2 m/s 690 mmHg 83%
    05:00 +17°C° 0 mm 2 m/s 690 mmHg 82%
    06:00 +18°C° 0 mm 1 m/s 691 mmHg 81%
    07:00 +18°C° 0 mm 1 m/s 691 mmHg 79%
    08:00 +21°C° 0 mm 1 m/s 692 mmHg 66%
    09:00 +24°C° 0 mm 2 m/s 692 mmHg 53%
    10:00 +27°C° 0 mm 2 m/s 693 mmHg 40%
    11:00 +30°C° 0 mm 2 m/s 692 mmHg 34%
    12:00 +32°C° 0 mm 2 m/s 692 mmHg 29%
    13:00 +35°C° 0 mm 2 m/s 691 mmHg 24%
    14:00 +35°C° 0 mm 2 m/s 691 mmHg 24%
    15:00 +35°C° 0 mm 2 m/s 690 mmHg 24%
    16:00 +35°C° 0 mm 2 m/s 690 mmHg 24%
    17:00 +32°C° 0 mm 2 m/s 690 mmHg 28%
    18:00 +30°C° 0 mm 2 m/s 690 mmHg 32%
    19:00 +28°C° 0 mm 2 m/s 690 mmHg 36%
    20:00 +26°C° 0 mm 2 m/s 691 mmHg 41%
    21:00 +25°C° 0 mm 2 m/s 691 mmHg 47%
    22:00 +23°C° 0 mm 1 m/s 691 mmHg 52%
    23:00 +22°C° 0 mm 1 m/s 691 mmHg 58%

    28 August, Luni

    Timp Temperatura Precipitaţii Vânt Presiune Umiditate
    00:00 +20°C° 0 mm 2 m/s 691 mmHg 64%
    01:00 +20°C° 0 mm 2 m/s 690 mmHg 69%
    02:00 +20°C° 0 mm 1 m/s 690 mmHg 73%
    03:00 +19°C° 0 mm 1 m/s 690 mmHg 78%
    04:00 +18°C° 0 mm 1 m/s 690 mmHg 82%
    05:00 +19°C° 0 mm 1 m/s 691 mmHg 81%
    06:00 +19°C° 0 mm 1 m/s 691 mmHg 81%
    07:00 +19°C° 0 mm 1 m/s 691 mmHg 80%
    08:00 +21°C° 0 mm 2 m/s 692 mmHg 67%
    09:00 +25°C° 0 mm 2 m/s 692 mmHg 54%
    10:00 +28°C° 0 mm 2 m/s 693 mmHg 41%
    11:00 +30°C° 0 mm 2 m/s 692 mmHg 36%
    12:00 +32°C° 0 mm 2 m/s 692 mmHg 31%
    13:00 +35°C° 0 mm 2 m/s 691 mmHg 26%
    14:00 +35°C° 0 mm 2 m/s 691 mmHg 25%
    15:00 +35°C° 0 mm 2 m/s 691 mmHg 25%
    16:00 +35°C° 0 mm 2 m/s 690 mmHg 25%
    17:00 +32°C° 0 mm 2 m/s 690 mmHg 28%
    18:00 +30°C° 0 mm 2 m/s 691 mmHg 31%
    19:00 +28°C° 0 mm 3 m/s 691 mmHg 35%
    20:00 +26°C° 0 mm 3 m/s 691 mmHg 42%
    21:00 +24°C° 0 mm 3 m/s 692 mmHg 50%
    22:00 +23°C° 0 mm 2 m/s 692 mmHg 57%
    23:00 +21°C° 0 mm 2 m/s 692 mmHg 62%
    Arată mai mult